Weather History for Gulkana, AK

Change the Weather History Date:

Wednesday, August 21, 2013

  Actual Average Record
Temperature  
Mean Temperature 52 °F -  
Max Temperature 55 °F 62 °F 86 °F (1977)
Min Temperature 48 °F 42 °F -6 °F (1998)
Degree Days  
Heating Degree Days 14    
Growing Degree Days 2 (Base 50)    
Moisture  
Dew Point 42 °F    
Average Humidity 72    
Maximum Humidity 86    
Minimum Humidity 62    
Precipitation  
Precipitation 0.00 in - - ()
Sea Level Pressure  
Sea Level Pressure 29.82 in    
Wind  
Wind Speed 15 mph (SSE)    
Max Wind Speed 20 mph    
Max Gust Speed 28 mph    
Visibility 10 miles    
Events Rain    
Averages and records for this station are not official NWS values.
T = Trace of Precipitation, MM = Missing Value Source: NWS Daily Summary

Daily Weather History Graph

Daily Weather History Graph

Search for Another Location

Airport:

Trip Planner

Search our weather history database for the weather conditions in past years. The results will help you decide how hot, cold, wet, or windy it might be!

Date:

Astronomy

Aug. 21, 2013 Rise Set
Actual Time 6:02 AM AKDT 9:25 PM AKDT
Civil Twilight 5:08 AM AKDT 10:18 PM AKDT
Nautical Twilight 3:49 AM AKDT 11:35 PM AKDT
Astronomical Twilight 2:17 AM AKDT 1:12 AM AKDT
Moon 8:54 PM AKDT 7:27 AM AKDT
Length of Visible Light 17h 09m
Length of Day
15h 22m
Full, 99% of the Moon is Illuminated
Aug 21
Full
Aug 28
Last Quarter
Sep 5
New
Sep 12
First Quarter
Sep 19
Full

Hourly Weather History & Observations

Time (AKDT) Temp. Dew Point Humidity Pressure Visibility Wind Dir Wind Speed Gust Speed Precip Events Conditions
12:53 AM 51.1 °F 41.0 °F 68% 29.82 in 10.0 mi SSE 19.6 mph 27.6 mph N/A   Overcast
1:53 AM 50.0 °F 41.0 °F 71% 29.83 in 10.0 mi SSE 19.6 mph 27.6 mph N/A   Overcast
2:53 AM 48.9 °F 41.0 °F 74% 29.84 in 10.0 mi South 16.1 mph 23.0 mph N/A   Mostly Cloudy
3:53 AM 48.9 °F 41.0 °F 74% 29.84 in 10.0 mi SSE 12.7 mph - N/A   Overcast
4:53 AM 48.9 °F 39.9 °F 71% 29.84 in 10.0 mi South 15.0 mph 24.2 mph N/A   Overcast
5:53 AM 48.9 °F 39.9 °F 71% 29.85 in 10.0 mi SSE 13.8 mph - N/A   Overcast
6:53 AM 48.9 °F 41.0 °F 74% 29.85 in 10.0 mi SSE 12.7 mph - N/A   Overcast
7:53 AM 48.0 °F 41.0 °F 77% 29.85 in 10.0 mi South 11.5 mph - N/A   Overcast
8:53 AM 48.0 °F 42.1 °F 80% 29.85 in 10.0 mi SSE 15.0 mph - N/A   Overcast
9:53 AM 50.0 °F 42.1 °F 74% 29.85 in 10.0 mi South 13.8 mph - N/A   Overcast
10:53 AM 51.1 °F 42.1 °F 71% 29.84 in 10.0 mi SSE 12.7 mph 20.7 mph 0.00 in Rain Light Rain
11:53 AM 52.0 °F 42.1 °F 69% 29.84 in 10.0 mi SSE 11.5 mph 23.0 mph 0.00 in   Overcast
12:53 PM 52.0 °F 43.0 °F 71% 29.84 in 10.0 mi SSE 13.8 mph - 0.00 in Rain Light Rain
1:53 PM 52.0 °F 44.1 °F 74% 29.83 in 10.0 mi SE 11.5 mph 20.7 mph 0.00 in Rain Light Rain
2:53 PM 53.1 °F 44.1 °F 71% 29.83 in 10.0 mi SSE 13.8 mph 19.6 mph 0.00 in Rain Light Rain
3:53 PM 53.1 °F 44.1 °F 71% 29.81 in 10.0 mi SE 12.7 mph - 0.00 in   Overcast
4:53 PM 55.0 °F 43.0 °F 64% 29.80 in 10.0 mi SE 10.4 mph 20.7 mph N/A   Overcast
5:53 PM 55.0 °F 42.1 °F 62% 29.79 in 10.0 mi SSE 15.0 mph 23.0 mph N/A   Overcast
6:53 PM 53.1 °F 44.1 °F 71% 29.79 in 10.0 mi SE 12.7 mph - 0.00 in   Overcast
7:53 PM 51.1 °F 44.1 °F 77% 29.79 in 10.0 mi SE 12.7 mph - 0.00 in Rain Light Rain
8:53 PM 50.0 °F 44.1 °F 80% 29.79 in 10.0 mi SSE 12.7 mph - 0.00 in Rain Light Rain
9:53 PM 50.0 °F 44.1 °F 80% 29.79 in 10.0 mi SSE 11.5 mph - 0.00 in Rain Light Rain
10:53 PM 48.9 °F 43.0 °F 80% 29.79 in 10.0 mi SSE 12.7 mph - 0.00 in   Overcast
11:53 PM 48.0 °F 44.1 °F 86% 29.79 in 10.0 mi SSE 9.2 mph - 0.01 in   Overcast